Location: Unspecified
(51.5147°N, 7.4673°E)
Time: 16:28:30
(UTC+01:00)

Vanguard 3 - Visible Passes

Search period start: 10 February 2026 00:00
Search period end: 20 February 2026 00:00
Orbit: 507 x 3206 km, 33.3° (Epoch: 10 February)

Date Brightness Start Highest point End Pass type
(mag) Time Alt. Az. Time Alt. Az. Time Alt. Az.
15 Feb 9.5 18:51:09 10° S 18:51:36 10° S 18:52:02 10° S visible
17 Feb 9.5 18:16:29 10° SSW 18:19:33 13° S 18:22:07 10° SSE visible
18 Feb 9.4 19:06:05 10° SW 19:08:24 12° SSW 19:10:24 10° S visible
